sat.trackr.live / text

‹ back to catalog

COSMO-SKYMED 3

NORAD 33412 · 2008-054A

PAYLOAD ACTIVE UNKNOWN

§ Identity

Operator
Country
IT
Launch date
2008-10-25
Launch site
AFWTR
Launch vehicle
Mass (kg)
RCS (m²)
3.92

Purposes: earth_obs

External: N2YO · Heavens-Above · Gunter

§ Orbital elements

Epoch: 2026-09-20T05:05:39.198336Z

Period
95.53 min
Inclination
97.8149°
Eccentricity
0.0014460
Mean motion
15.07456215 rev/d
Perigee alt
534.0 km
Apogee alt
554.0 km
Semi-major
6,922.1 km
B*
1.4396e-4
RAAN
123.3327°
Arg perigee
308.8353°
Mean anomaly
51.1583°
Rev number
97,125

§ Raw data

COSMO-SKYMED 31 33412U 08054A   26263.21225924  .00002120  00000+0  14396-3 0  99962 33412  97.8149 123.3327 0014460 308.8353  51.1583 15.07456215971252

JSON: /api/v1/satellites/33412 · /tle

For live sub-satellite position, see the globe view (requires WebGL).

§ Visibility from observer

Set your observer location to see the next 7 days of passes ≥ 10°. The values pass through the URL so the page stays shareable.

No JS? Fill the form by hand. The geolocation button needs JavaScript.